[[{"header":{"parameterUnit":"m.s-1","parameterCategory":1,"la1":30.2991,"la2":30.254,"lo1":-89.0895,"lo2":-89.0444,"dy":0.0017,"dx":0.0017,"nx":28,"ny":28,"refTime":"2024-04-30T03:00:00:Z","depth":0,"parameterNumber":2,"parameterNumberName":"U-component_of_WINDS"},"data":[0,0,0,0,0,0,0,0,0,0,0,0,0,0,0,0,0,0,0,0,0,0,0,0,0,0,0,0,0,0,0,0,0,0,0,0,0,0,0,0,0,0,0,0,0,0,0,0,0,0,0,0,0,0,0,0,0,0,-1.9667,-1.967,0,-1.9941,-1.9944,-1.9947,-2.0094,-2.0095,-2.0095,-2.0095,-2.0377,-2.0384,-2.0391,0,0,0,0,0,0,0,0,0,0,0,0,0,-1.9275,-1.9282,-1.9667,-1.967,-1.9674,-1.994,-1.9944,-1.9948,-2.0094,-2.0095,-2.0095,-2.0095,-2.0375,-2.0383,-2.0392,0,0,0,0,0,0,0,0,0,0,0,0,0,-1.9487,-1.9284,-1.9666,-1.9779,-1.9792,-1.9939,-1.9944,-1.9949,-2.0094,-2.0095,-2.0095,-2.0096,-2.0372,-2.0382,-2.0393,-2.045,0,0,-2.0426,-2.0431,0,0,0,0,0,0,0,0,-1.9474,-1.9501,-1.9759,-1.9771,-1.9786,-1.9984,-1.9909,-2.0117,-2.0094,-1.9979,-2.0095,-2.0096,-2.0246,-2.0267,-2.0317,-2.0463,-2.0475,-2.0427,-2.0433,-2.0438,-2.0441,0,0,0,0,0,0,0,-1.946,-1.949,-1.9775,-1.9763,-1.9779,-1.9817,-1.9848,-1.9949,-2.0107,-1.9989,-2.0001,-2.0031,-2.0253,-2.0306,-2.0325,-2.0479,-2.0426,-2.0436,-2.0443,-2.0447,-2.0689,-2.0689,0,0,0,0,0,0,-1.9427,-1.9477,-1.9767,-1.9783,-1.9628,-1.9824,-1.9858,-1.992,-2.0106,-2.0135,-2.003,-2.0037,-2.0288,-2.0312,-2.0335,-2.0416,-2.0438,-2.0448,-2.0454,-2.0689,-2.0689,-2.0689,0,0,0,0,0,0,-1.9418,-1.9451,-1.9756,-1.9633,-1.9675,-1.983,-1.9898,-1.9925,-1.9978,-2.0137,-2.0166,-2.0055,-2.0289,-2.032,-2.0421,-2.0428,-2.0453,-2.0463,-2.0689,-2.0689,-2.0689,-2.0576,0,0,0,0,0,0,-1.9406,-1.9447,-1.9469,-1.9633,-1.9681,-1.9834,-1.9899,-1.993,-1.9996,-2.0007,-2.0168,-2.0195,-2.0292,-2.0404,-2.0432,-2.0443,-2.0471,-2.0689,-2.0689,-2.0689,-2.058,-2.0572,-2.0566,0,0,0,0,0,-1.9391,-1.9426,-1.9469,-1.9503,-1.9711,-1.9835,-1.9862,-1.9972,-1.9996,-2.002,-2.0123,-2.019,-2.0423,-2.0413,-2.0445,-2.046,-2.0689,-2.0689,-2.0689,-2.0583,-2.0574,-2.0566,0,0,0,0,0,0,-1.9258,-1.9449,-1.9499,-1.9588,-1.9694,-1.9859,-1.9893,-1.9959,-2.0061,-2.0067,-2.02,-2.0235,-2.0324,-2.0403,-2.0388,-2.0527,-2.0563,-2.057,-2.0472,-2.0464,-2.0457,-2.0436,-2.048,0,0,0,0,0,-1.9239,-1.9322,-1.9485,-1.9547,-1.9598,-1.9736,-1.9794,-1.987,-1.9985,-2.0031,-2.0141,-2.0251,-2.035,-2.0412,-2.0511,-2.0593,-2.0631,-2.0619,-2.0612,-2.0605,-2.0609,-2.0661,-2.0658,-2.0689,-2.0689,-2.0689,0,0,-1.92,-1.9315,-1.9359,-1.9524,-1.9615,-1.9699,-1.9773,-1.9858,-1.9923,-2.0044,-2.0146,-2.0231,-2.0363,-2.0455,-2.0501,-2.0524,-2.061,-2.0605,-2.0599,-2.0607,-2.0661,-2.0658,-2.0655,-2.0689,-2.0689,-2.0689,0,0,-1.9173,-1.9268,-1.9331,-1.9421,-1.9559,-1.9651,-1.9666,-1.9823,-1.9883,-1.9988,-2.0082,-2.0162,-2.0327,-2.0419,-2.0487,-2.0498,-2.0564,-2.0527,-2.0489,-2.0538,-2.0535,-2.0534,-2.0539,-2.0539,-2.053,-2.053,-2.0529,0,-1.9107,-1.9237,-1.9355,-1.9436,-1.9507,-1.9622,-1.9688,-1.977,-1.9933,-1.9979,-2.0003,-2.0216,-2.0313,-2.0429,-2.0432,-2.0483,-2.0506,-2.0508,-2.0526,-2.0526,-2.0526,-2.0533,-2.0534,-2.0524,-2.0525,-2.0525,-2.0526,0,-1.9151,-1.924,-1.9274,-1.9429,-1.9504,-1.9576,-1.9707,-1.9769,-1.984,-1.993,-2.0037,-2.0158,-2.0285,-2.0318,-2.0387,-2.0446,-2.0455,-2.05,-2.0539,-2.0516,-2.0524,-2.0528,-2.0516,-2.0518,-2.052,-2.0521,0,0,-1.9043,-1.9265,-1.9275,-1.9348,-1.951,-1.9582,-1.9662,-1.9786,-1.9837,-1.9947,-2.0018,-2.0158,-2.0202,-2.0279,-2.0361,-2.0404,-2.0407,-2.0445,-2.045,-2.0434,-2.0481,-2.0445,-2.0446,-2.0453,-2.0454,-2.0454,-2.047,0,-1.9039,-1.9186,-1.9296,-1.9402,-1.9487,-1.9599,-1.9669,-1.9777,-1.9865,-1.9951,-2.0049,-2.0146,-2.0196,-2.0243,-2.0291,-2.0396,-2.0418,-2.0397,-2.0522,-2.0525,-2.0484,-2.045,-2.0412,-2.042,-2.0474,-2.0474,-2.0475,0,-1.9052,-1.9158,-1.9272,-1.9428,-1.9468,-1.9528,-1.9653,-1.9733,-1.986,-1.9921,-2.0008,-2.0093,-2.0185,-2.0217,-2.0346,-2.0329,-2.0388,-2.0447,-2.0451,-2.0466,-2.0497,-2.0464,-2.0426,-2.0426,-2.0481,-2.0481,-2.048,0,-1.8962,-1.9134,-1.9225,-1.9284,-1.9468,-1.9509,-1.9587,-1.9714,-1.9783,-1.9893,-1.9939,-2.0058,-2.0123,-2.0214,-2.033,-2.0342,-2.0448,-2.0489,-2.0503,-2.0499,-2.0518,-2.0515,-2.0488,-2.0556,-2.0556,-2.0556,-2.0556,0,-1.8945,-1.901,-1.9188,-1.9243,-1.9321,-1.9449,-1.9523,-1.9612,-1.9725,-1.9801,-1.9907,-1.9977,-2.0126,-2.0215,-2.0307,-2.0401,-2.0429,-2.0483,-2.0506,-2.0473,-2.0466,-2.0512,-2.0514,-2.0557,-2.0556,-2.0556,-2.0556,0,-1.8857,-1.8978,-1.9085,-1.9252,-1.9295,-1.9345,-1.9489,-1.9549,-1.9644,-1.974,-1.977,-1.9919,-2.003,-2.0155,-2.0307,-2.0369,-2.0457,-2.0491,-2.0413,-2.0427,-2.0434,-2.0431,-2.0435,-2.0442,-2.0504,-2.0503,-2.0503,0,-1.8836,-1.8889,-1.9063,-1.9121,-1.9197,-1.929,-1.9362,-1.9492,-1.9562,-1.9712,-1.9754,-1.9873,-1.9975,-2.0147,-2.027,-2.0388,-2.0426,-2.0419,-2.0444,-2.041,-2.0426,-2.0421,-2.0428,-2.0411,-2.041,-2.0408,-2.0408,0,-1.8788,-1.8847,-1.8944,-1.9065,-1.9147,-1.9248,-1.9353,-1.9396,-1.9548,-1.9622,-1.9736,-1.9815,-1.9972,-2.0089,-2.0223,-2.0307,-2.0383,-2.0399,-2.0409,-2.0375,-2.0328,-2.0354,-2.0394,-2.0398,-2.0399,-2.04,-2.04,-2.0401,-1.8733,-1.8787,-1.8917,-1.9024,-1.9118,-1.9215,-1.928,-1.9384,-1.9482,-1.9619,-1.9691,-1.9805,-1.9935,-2.0122,-2.0204,-2.0297,-2.0322,-2.0335,-2.0339,-2.034,-2.0331,-2.0314,-2.0322,-2.0323,-2.0323,-2.0323,-2.0324,0,-1.869,-1.8781,-1.8878,-1.9023,-1.9108,-1.9173,-1.9295,-1.9362,-1.946,-1.9575,-1.9674,-1.9807,-1.9923,-2.0057,-2.0182,-2.023,-2.0269,-2.0259,-2.0256,-2.0275,-2.0301,-2.0281,-2.0226,-2.0226,-2.0226,-2.0226,-2.0226,-2.0226,-1.8677,-1.8772,-1.8846,-1.899,-1.9082,-1.9193,-1.9257,-1.9349,-1.9441,-1.9585,-1.9682,-1.9769,-1.9892,-2.0028,-2.0138,-2.0175,-2.0216,-2.0196,-2.0242,-2.0264,-2.0272,-2.028,-2.0261,-2.0204,-2.0204,-2.0209,-2.0209,-2.0209]},{"header":{"parameterUnit":"m.s-1","parameterCategory":1,"la1":30.2991,"la2":30.254,"lo1":-89.0895,"lo2":-89.0444,"dy":0.0017,"dx":0.0017,"nx":28,"ny":28,"refTime":"2024-04-30T03:00:00:Z","depth":0,"parameterNumber":3,"parameterNumberName":"V-component_of_WINDS"},"data":[0,0,0,0,0,0,0,0,0,0,0,0,0,0,0,0,0,0,0,0,0,0,0,0,0,0,0,0,0,0,0,0,0,0,0,0,0,0,0,0,0,0,0,0,0,0,0,0,0,0,0,0,0,0,0,0,0,0,-0.0037,-0.0034,0,0.0249,0.0252,0.0256,0.0449,0.0451,0.0452,0.0453,0.0753,0.0759,0.0766,0,0,0,0,0,0,0,0,0,0,0,0,0,-0.0405,-0.0399,-0.0037,-0.0033,-0.003,0.0248,0.0252,0.0256,0.0449,0.0451,0.0452,0.0454,0.0751,0.0759,0.0767,0,0,0,0,0,0,0,0,0,0,0,0,0,-0.0195,-0.0397,-0.0038,0.01,0.0115,0.0248,0.0253,0.0257,0.0449,0.0451,0.0453,0.0455,0.0748,0.0758,0.0768,0.0789,0,0,0.0798,0.0803,0,0,0,0,0,0,0,0,-0.0207,-0.0181,0.0076,0.009,0.0108,0.0315,0.0233,0.0436,0.0448,0.0322,0.0453,0.0456,0.0606,0.0628,0.0677,0.0803,0.0816,0.0799,0.0805,0.081,0.0813,0,0,0,0,0,0,0,-0.0222,-0.0192,0.0077,0.0079,0.0099,0.0151,0.0183,0.0272,0.0449,0.0333,0.0348,0.0379,0.0615,0.0667,0.0686,0.082,0.0799,0.0808,0.0814,0.0818,0.0986,0.0984,0,0,0,0,0,0,-0.0259,-0.0206,0.0067,0.0085,-0.0048,0.0156,0.0192,0.0247,0.0449,0.0481,0.0377,0.0387,0.0649,0.0674,0.0697,0.0739,0.081,0.0819,0.0825,0.0987,0.0985,0.0984,0,0,0,0,0,0,-0.0268,-0.0237,0.0056,-0.0056,-0.0015,0.016,0.022,0.0251,0.0303,0.0482,0.0515,0.0396,0.0652,0.0683,0.0766,0.0752,0.0824,0.0833,0.0989,0.0987,0.0985,0.082,0,0,0,0,0,0,-0.0279,-0.0241,-0.0234,-0.0058,-0.001,0.0115,0.0219,0.0255,0.0319,0.0335,0.0509,0.054,0.0656,0.075,0.0776,0.0767,0.0841,0.0991,0.0988,0.0985,0.0828,0.0813,0.08,0,0,0,0,0,-0.0293,-0.0292,-0.0235,-0.0203,0.0002,0.0114,0.0142,0.0273,0.0317,0.0328,0.0444,0.0534,0.075,0.0756,0.0788,0.0782,0.0993,0.0989,0.0986,0.0834,0.0816,0.08,0,0,0,0,0,0,-0.0473,-0.0266,-0.0201,-0.0143,-0.0034,0.0146,0.0163,0.0248,0.0349,0.036,0.0521,0.0559,0.0626,0.0713,0.0717,0.0817,0.0883,0.0885,0.0757,0.0741,0.0727,0.0705,0.0849,0,0,0,0,0,-0.0507,-0.0436,-0.0257,-0.0223,-0.0171,-0.0014,0.004,0.0132,0.0253,0.0301,0.0422,0.0539,0.0634,0.0692,0.0789,0.0842,0.0886,0.0855,0.084,0.0828,0.0828,0.0869,0.0858,0.0972,0.0972,0.0972,0,0,-0.0575,-0.0452,-0.0418,-0.0256,-0.0161,-0.0087,0.0023,0.0096,0.0154,0.0313,0.0398,0.0492,0.0634,0.0703,0.0739,0.0777,0.0807,0.0824,0.0812,0.082,0.0864,0.0853,0.0843,0.097,0.097,0.097,0,0,-0.0661,-0.0563,-0.0522,-0.0427,-0.0284,-0.0178,-0.0168,0.0001,0.0069,0.0157,0.028,0.0354,0.0511,0.0609,0.0679,0.0637,0.0726,0.0664,0.059,0.0628,0.0619,0.0612,0.0601,0.0594,0.0664,0.0664,0.0663,0,-0.0763,-0.065,-0.0511,-0.0445,-0.0375,-0.0228,-0.0182,-0.0096,0.0072,0.0119,0.0158,0.0364,0.047,0.0566,0.0556,0.0607,0.0627,0.0644,0.0609,0.0603,0.0599,0.059,0.0584,0.0655,0.0656,0.0657,0.0658,0,-0.0781,-0.0704,-0.0687,-0.0529,-0.0457,-0.0402,-0.025,-0.0193,-0.0105,-0.0002,0.009,0.0222,0.0351,0.0381,0.0467,0.0492,0.0511,0.0577,0.0647,0.0577,0.0571,0.0569,0.0643,0.0646,0.0649,0.0651,0,0,-0.0977,-0.0739,-0.0735,-0.066,-0.0488,-0.0423,-0.0358,-0.0233,-0.0186,-0.0072,-0.0011,0.0123,0.0187,0.0267,0.0366,0.0399,0.0363,0.0463,0.0469,0.0442,0.0404,0.0353,0.0346,0.0423,0.0423,0.0423,0.0393,0,-0.1036,-0.0915,-0.0785,-0.0708,-0.0632,-0.0488,-0.043,-0.0315,-0.0216,-0.0133,-0.002,0.0073,0.0148,0.0198,0.0237,0.0358,0.0357,0.0362,0.0487,0.0489,0.0446,0.0343,0.0288,0.0253,0.0391,0.0391,0.0391,0,-0.109,-0.0984,-0.0901,-0.0731,-0.0694,-0.0645,-0.0517,-0.0442,-0.0306,-0.0234,-0.0143,-0.0037,0.0046,0.0106,0.0225,0.0225,0.0285,0.0353,0.0355,0.0372,0.0435,0.0358,0.0244,0.0239,0.0388,0.0388,0.0389,0,-0.1239,-0.1075,-0.1003,-0.0942,-0.0743,-0.0711,-0.0626,-0.0488,-0.042,-0.0306,-0.0259,-0.0137,-0.007,0.0025,0.0164,0.0195,0.0269,0.0341,0.0334,0.0331,0.0342,0.0339,0.0237,0.0379,0.0379,0.0379,0.0379,0,-0.1318,-0.1272,-0.1066,-0.1022,-0.0964,-0.0811,-0.0756,-0.0657,-0.0534,-0.0464,-0.033,-0.0266,-0.0086,0.0001,0.0112,0.0196,0.0225,0.0288,0.0317,0.0276,0.0268,0.0317,0.0323,0.0378,0.0378,0.0378,0.0378,0,-0.1477,-0.1337,-0.1248,-0.1065,-0.1018,-0.0983,-0.0823,-0.0771,-0.0662,-0.0574,-0.0544,-0.0371,-0.0261,-0.0112,0.0045,0.012,0.0191,0.0235,0.0143,0.016,0.0147,0.0146,0.0072,0.0073,0.0211,0.0209,0.0208,0,-0.1537,-0.1498,-0.131,-0.1255,-0.1174,-0.1086,-0.1015,-0.0861,-0.0792,-0.063,-0.0597,-0.0476,-0.0372,-0.02,-0.0058,0.0065,0.0115,0.0081,0.0134,0.0094,0.0118,0.0114,0.0121,0.0067,0.0065,0.0063,0.0061,0,-0.1658,-0.159,-0.1495,-0.1374,-0.1293,-0.119,-0.108,-0.104,-0.0861,-0.0789,-0.0675,-0.0595,-0.0432,-0.0312,-0.017,-0.0075,0.0024,0.0044,0.005,0.0008,-0.0046,-0.0014,0.0109,0.0044,0.0046,0.0047,0.0048,0.0049,-0.1767,-0.1724,-0.1584,-0.1481,-0.1381,-0.128,-0.1222,-0.1104,-0.1007,-0.0866,-0.0778,-0.0667,-0.0523,-0.0322,-0.0231,-0.0138,-0.0099,-0.0092,-0.009,-0.0091,-0.0103,-0.0061,-0.0111,-0.0111,-0.011,-0.011,-0.0109,0,-0.188,-0.1782,-0.1688,-0.1538,-0.1455,-0.137,-0.1241,-0.1176,-0.1081,-0.0958,-0.0857,-0.0722,-0.0603,-0.045,-0.0318,-0.0273,-0.0223,-0.0243,-0.0245,-0.0223,-0.0147,-0.0164,-0.0285,-0.0285,-0.0285,-0.0285,-0.0285,-0.0285,-0.1929,-0.185,-0.1764,-0.1632,-0.1531,-0.1424,-0.1358,-0.1261,-0.1161,-0.1018,-0.092,-0.082,-0.0682,-0.0538,-0.0423,-0.038,-0.0337,-0.0371,-0.0314,-0.0245,-0.023,-0.0215,-0.023,-0.0363,-0.0363,-0.0397,-0.0398,-0.0398]}]]